Location: Franzen
(48.6167°N, 15.3833°E)
Time: 13:18:58
(UTC+00:00)

Cosmos 1655 Rocket - Pass Details

Date: 29 July 2021
Orbit: 969 x 1007 km, 82.9° (Epoch: 25 September)

Event Time Altitude Azimuth Distance (km) Brightness Sun altitude
Exits shadow 20:27:48 20° 140° (SE) 2,130 5.1 -14.3°
Maximum altitude 20:31:29 37° 87° (E) 1,520 4.7 -14.6°
Drops below altitude 10° 20:37:15 10° 23° (NNE) 2,794 6.8 -15.2°
Sets 20:39:59 0° 15° (NNE) 3,750 7.7 -15.5°
